EW9525 Weather Reports


time (UTC)temp
F
wind
direction
speed
knots
gust
knots
rain 1hr
in
rain 24hr
in
rain mn
in
humidity
%
barometer
mb
20260507224526 73 226 0.9 2.6 0.00 0.02 0.00 28 1009.1
20260507223025 72 245 0.0 2.6 0.00 0.02 0.00 33 1009.2
20260507221522 72 295 1.7 6.1 0.00 0.02 0.00 32 1009.4
20260507220021 73 262 1.7 5.2 0.00 0.02 0.00 31 1009.6
20260507214522 74 263 2.6 4.3 0.00 0.02 0.00 27 1009.6
20260507213026 72 254 2.6 5.2 0.00 0.02 0.00 29 1009.8
20260507211516 73 279 0.9 3.5 0.00 0.02 0.00 29 1010.1
20260507210015 73 257 0.0 7.0 0.00 0.02 0.00 27 1010.2
20260507204514 73 303 4.3 13.0 0.00 0.02 0.00 31 1010.4
20260507203016 74 281 4.3 8.7 0.00 0.02 0.00 28 1010.6
20260507201512 74 304 4.3 13.9 0.00 0.02 0.00 28 1010.9
20260507200017 74 254 0.9 8.7 0.00 0.08 0.00 27 1011.1
20260507194507 73 256 1.7 10.4 0.00 0.08 0.00 29 1011.2
20260507193111 73 261 5.2 11.3 0.00 0.08 0.00 32 1011.3
20260507191504 73 266 7.0 11.3 0.00 0.08 0.00 29 1011.5
20260507190004 72 255 4.3 7.8 0.00 0.08 0.00 30 1011.6
20260507184558 72 267 4.3 8.7 0.00 0.08 0.00 31 1011.8
20260507183100 71 257 4.3 9.6 0.00 0.08 0.00 32 1012.0
20260507181554 71 248 7.0 12.2 0.00 0.08 0.00 30 1012.2
20260507180101 71 290 3.5 11.3 0.00 0.08 0.00 34 1012.4
20260507174552 70 248 5.2 13.9 0.00 0.08 0.00 32 1012.4
20260507173054 69 287 6.1 12.2 0.00 0.08 0.00 36 1012.7
20260507171546 68 245 7.0 16.5 0.00 0.08 0.00 33 1012.9
20260507170041 66 256 8.7 14.8 0.00 0.08 0.00 37 1013.1
20260507164541 66 240 6.1 14.8 0.00 0.08 0.00 37 1013.2
20260507163036 65 257 7.8 17.4 0.00 0.08 0.00 41 1013.2
20260507161533 63 251 7.8 13.9 0.00 0.08 0.00 44 1013.3
20260507160030 61 215 7.8 14.8 0.00 0.08 0.00 47 1013.3
20260507154525 59 272 7.0 12.2 0.00 0.08 0.00 50 1013.6
20260507153022 58 224 7.0 13.0 0.00 0.08 0.00 50 1013.8
20260507151518 57 216 5.2 13.0 0.00 0.08 0.00 52 1013.7
20260507150017 56 224 8.7 13.0 0.00 0.08 0.00 51 1014.0
20260507144512 55 212 8.7 14.8 0.00 0.08 0.00 51 1014.0
20260507143008 54 210 7.0 13.0 0.00 0.08 0.00 56 1013.9
20260507141504 53 207 7.8 12.2 0.00 0.08 0.00 59 1014.0
20260507140125 51 209 7.8 11.3 0.00 0.08 0.00 62 1013.9
20260507134556 49 212 3.5 8.7 0.00 0.08 0.00 73 1014.1
20260507133052 45 212 6.1 9.6 0.00 0.08 0.00 78 1014.2
20260507131558 42 195 6.1 8.7 0.00 0.08 0.00 84 1014.1
20260507130050 40 186 4.3 7.0 0.00 0.08 0.00 87 1014.0
20260507124549 38 185 3.5 5.2 0.00 0.08 0.00 87 1014.2
20260507123052 37 217 0.9 2.6 0.00 0.08 0.00 87 1014.0
20260507121543 36 183 1.7 4.3 0.00 0.08 0.00 88 1013.9
20260507120138 35 181 2.6 4.3 0.00 0.08 0.00 88 1014.0
20260507114543 35 173 2.6 5.2 0.00 0.10 0.00 89 1014.2
20260507113038 34 179 3.5 6.1 0.00 0.10 0.00 90 1014.2
20260507111535 34 173 1.7 4.3 0.00 0.10 0.00 91 1014.3
20260507110032 33 181 1.7 2.6 0.00 0.11 0.00 90 1014.5
20260507104529 34 153 0.9 3.5 0.00 0.11 0.00 90 1014.6
20260507103029 34 179 1.7 3.5 0.00 0.11 0.00 90 1014.8
20260507101534 34 170 1.7 3.5 0.00 0.11 0.00 90 1015.0
20260507100032 34 174 1.7 3.5 0.00 0.11 0.00 90 1015.2
20260507094523 34 160 1.7 4.3 0.00 0.11 0.00 90 1015.4
20260507093035 34 187 1.7 3.5 0.00 0.11 0.00 89 1015.8
20260507091517 35 186 1.7 3.5 0.00 0.11 0.00 89 1015.7
20260507090025 35 175 1.7 4.3 0.00 0.11 0.00 88 1016.1
20260507084511 37 183 3.5 7.0 0.00 0.11 0.00 88 1016.3
20260507083015 37 190 3.5 7.0 0.00 0.11 0.00 87 1016.6
20260507081506 37 167 4.3 8.7 0.00 0.11 0.00 87 1016.7
20260507080006 38 187 4.3 9.6 0.00 0.12 0.00 87 1016.9
20260507074513 38 193 6.1 8.7 0.00 0.12 0.00 87 1016.9
20260507073002 37 174 3.5 6.1 0.00 0.12 0.00 88 1017.1
20260507071613 38 189 3.5 6.1 0.00 0.12 0.00 87 1017.2
20260507070058 38 200 5.2 7.8 0.00 0.13 0.00 87 1017.4
20260507064558 38 177 4.3 8.7 0.00 0.13 0.00 88 1017.8
20260507063055 38 184 2.6 5.2 0.00 0.13 0.00 88 1018.0
20260507061551 38 192 3.5 6.1 0.00 0.13 0.00 88 1017.9
20260507060049 38 179 3.5 7.8 0.00 0.16 0.00 88 1018.0
20260507054552 39 209 4.3 7.8 0.00 0.16 0.00 88 1018.3
20260507053048 39 195 4.3 7.8 0.00 0.16 0.00 88 1018.4
20260507051544 39 206 3.5 7.8 0.00 0.16 0.00 88 1018.4
20260507050040 38 180 2.6 5.2 0.00 0.18 0.16 89 1018.6
20260507044640 38 190 2.6 4.3 0.00 0.18 0.16 89 1018.6
20260507043040 39 167 1.7 4.3 0.00 0.18 0.16 88 1018.8
20260507041538 39 184 2.6 5.2 0.00 0.18 0.16 88 1018.8
20260507040040 39 179 2.6 4.3 0.00 0.23 0.16 88 1019.0
20260507034535 38 184 1.7 3.5 0.00 0.23 0.16 88 1019.0
20260507033038 38 193 0.9 3.5 0.00 0.23 0.16 87 1019.1
20260507031531 39 219 0.9 1.7 0.00 0.23 0.16 86 1019.2
20260507030032 39 195 0.9 2.6 0.00 0.25 0.16 85 1019.2
20260507024533 40 182 0.9 2.6 0.00 0.25 0.16 82 1019.0
20260507023030 42 176 1.7 3.5 0.00 0.25 0.16 81 1019.0
20260507021528 43 185 1.7 2.6 0.00 0.25 0.16 79 1018.9
20260507020030 44 169 1.7 4.3 0.00 0.26 0.16 76 1018.7
20260507014528 46 163 1.7 4.3 0.00 0.26 0.16 73 1018.6
20260507013035 48 153 2.6 5.2 0.00 0.26 0.16 72 1018.7
20260507011536 49 160 2.6 4.3 0.00 0.26 0.16 73 1018.8
20260507010028 49 153 2.6 4.3 0.00 0.26 0.16 73 1018.9
20260507004525 48 130 1.7 4.3 0.00 0.26 0.16 73 1019.0
20260507003025 50 149 3.5 7.0 0.00 0.26 0.16 64 1019.0
20260507001529 51 184 1.7 4.3 0.00 0.26 0.16 69 1019.2
20260507000024 50 190 1.7 5.2 0.00 0.26 0.16 68 1019.2
20260506234530 51 125 1.7 7.0 0.00 0.26 0.16 67 1019.4
20260506233025 50 115 2.6 5.2 0.01 0.26 0.16 68 1019.3
20260506231524 50 155 1.7 4.3 0.02 0.26 0.16 69 1019.5
20260506230022 48 105 1.7 4.3 0.02 0.27 0.16 75 1019.5